Date,TemperatureHighF,TemperatureAvgF,TemperatureLowF,DewpointHighF,DewpointAvgF,DewpointLowF,HumidityHigh,HumidityAvg,HumidityLow,PressureMaxIn,PressureMinIn,WindSpeedMaxMPH,WindSpeedAvgMPH,GustSpeedMaxMPH,PrecipitationSumIn
2014-1-1,29,24,21,21,17,15,80,77,71,30.24,29.99,11,2,11,0.00
2014-1-2,23,18,11,18,13,3,86,81,69,30.00,29.68,28,7,32,0.00
2014-1-3,14,10,6,6,1,-3,78,66,53,30.35,29.97,24,5,28,0.00
2014-1-4,32,21,8,12,6,0,71,53,37,30.24,29.99,22,6,22,0.00
2014-1-5,48,36,29,43,25,12,90,65,47,29.99,29.19,20,4,20,0.20
2014-1-6,48,7,-11,43,-1,-23,88,68,52,30.17,29.19,25,5,25,0.10
2014-1-7,4,-3,-11,-5,-13,-23,66,60,53,30.34,30.17,21,3,21,0.00
2014-1-8,22,14,3,17,5,-5,85,68,56,30.40,30.30,14,3,15,0.00
2014-1-9,30,24,17,27,18,12,89,77,67,30.49,30.24,13,2,13,0.02
2014-1-10,48,37,30,44,35,27,95,93,86,30.24,29.69,14,5,14,0.01
2014-1-11,54,50,47,49,47,43,94,88,81,29.69,29.39,14,7,16,0.42
2014-1-12,36,33,32,30,27,26,89,78,70,29.91,29.58,12,4,19,0.01
2014-1-13,49,42,36,44,34,28,93,72,50,29.83,29.56,16,9,18,0.13
2014-1-14,45,39,35,43,32,24,93,77,56,29.70,29.56,11,3,11,0.06
2014-1-15,40,28,24,31,17,10,81,63,52,29.93,29.65,15,2,16,0.00
2014-1-16,29,25,19,23,14,9,83,64,50,29.90,29.67,16,6,19,0.00
2014-1-17,30,29,28,26,25,23,87,84,81,29.69,29.66,14,7,14,0.00
2014-1-18,18,17,10,13,9,0,83,70,60,29.94,29.74,10,4,18,0.00
2014-1-19,31,24,17,20,17,12,86,74,61,29.74,29.58,22,4,23,0.02
2014-1-20,35,30,22,27,22,16,84,73,64,29.84,29.50,9,4,16,0.01
2014-1-21,20,11,4,15,-3,-11,81,53,42,30.04,29.79,25,10,27,0.00
2014-1-22,10,5,-4,3,-4,-10,76,66,57,30.05,29.94,5,2,12,0.00
2014-1-23,10,7,2,4,-1,-6,79,68,62,30.42,29.92,11,3,18,0.00
2014-1-24,16,6,-3,0,-4,-9,75,63,47,30.44,29.71,24,7,25,0.00
2014-1-25,28,19,11,22,12,-2,88,76,45,29.71,29.25,25,8,27,0.00
2014-1-26,33,15,4,24,7,-5,84,69,61,29.75,29.40,19,6,20,0.00
2014-1-27,38,14,-4,28,3,-13,80,61,48,30.27,29.34,33,5,33,0.00
2014-1-28,6,-3,-14,-10,-15,-21,70,58,41,30.39,30.23,11,1,11,0.00
2014-1-29,17,5,-7,-3,-9,-17,65,53,38,30.24,30.16,18,2,18,0.00
2014-1-30,31,18,5,7,-2,-6,59,44,28,30.23,29.84,18,7,18,0.00
2014-1-31,35,32,29,27,16,6,87,57,33,30.06,29.85,10,2,13,0.00
2014-2-1,48,39,29,36,26,22,87,62,44,30.03,29.73,14,4,14,0.02
2014-2-2,43,32,23,39,28,18,92,86,75,30.11,29.77,15,6,18,0.11
2014-2-3,27,22,15,18,13,9,82,68,47,30.28,30.02,18,4,18,0.00
2014-2-4,29,22,12,21,13,7,88,70,48,30.34,29.92,11,2,12,0.00
2014-2-5,28,24,17,25,20,11,91,86,76,30.20,29.53,21,5,23,0.00
2014-2-6,22,17,10,13,10,6,82,74,65,30.31,30.20,14,2,15,0.00
2014-2-7,16,8,-2,5,-5,-10,72,57,40,30.34,30.24,11,2,12,0.00
2014-2-8,19,10,0,11,-2,-7,79,59,37,30.29,30.10,2,0,8,0.00
2014-2-9,25,19,16,20,14,8,86,79,68,30.09,29.87,7,2,20,0.00
2014-2-10,20,14,7,8,4,0,81,65,51,30.29,30.08,13,2,13,0.00
2014-2-11,19,8,-4,7,-1,-10,78,68,53,30.41,30.27,10,1,10,0.00
2014-2-12,30,15,-4,6,1,-11,79,56,32,30.38,29.97,11,2,11,0.00
2014-2-13,34,24,15,24,12,5,68,60,52,29.97,29.47,12,2,12,0.03
2014-2-14,31,27,22,21,16,10,83,65,55,29.64,29.37,15,3,20,0.00
2014-2-15,24,19,8,18,11,1,84,71,48,30.01,29.62,16,5,16,0.01
2014-2-16,24,16,6,18,10,0,82,77,72,30.25,29.89,13,2,15,0.00
2014-2-17,34,19,3,32,9,-2,93,67,35,30.31,29.61,22,6,22,0.00
2014-2-18,42,34,25,32,24,20,94,69,46,29.97,29.62,21,5,25,0.05
2014-2-19,48,40,29,37,29,21,85,65,44,30.00,29.55,22,4,22,0.01
2014-2-20,54,38,24,46,32,20,90,79,62,30.01,29.50,18,6,18,0.30
2014-2-21,52,41,35,49,30,14,91,66,37,29.82,29.39,23,6,24,0.25
2014-2-22,50,41,34,30,22,14,78,47,35,29.91,29.76,16,5,20,0.00
2014-2-23,39,34,24,31,24,12,87,69,42,29.98,29.88,13,2,14,0.00
2014-2-24,29,23,20,12,9,4,65,54,35,30.08,29.96,22,3,24,0.00
2014-2-25,24,20,18,16,11,8,81,68,55,30.05,29.90,12,3,15,0.00
2014-2-26,22,15,11,14,1,-4,76,53,41,30.02,29.67,21,4,24,0.00
2014-2-27,19,13,3,11,0,-10,79,56,44,30.10,29.54,26,4,32,0.00
2014-2-28,26,13,0,2,-4,-9,73,49,27,30.26,30.06,13,4,13,0.00
2014-3-1,47,33,19,29,13,-1,65,44,28,30.07,29.97,14,3,14,0.00
2014-3-2,31,19,10,23,11,-4,85,71,50,30.15,30.00,20,7,20,0.00
2014-3-3,16,10,3,-2,-5,-10,61,51,37,30.34,30.15,21,6,21,0.00
2014-3-4,4,3,2,-5,-6,-8,67,65,61,30.33,30.28,5,0,5,0.00
2014-3-5,24,19,15,12,6,-1,69,56,34,30.35,30.09,16,6,19,0.00
2014-3-6,39,26,14,17,10,4,68,52,38,30.34,30.06,13,4,18,0.00
2014-3-7,54,29,24,34,17,14,73,60,42,30.06,29.81,6,2,12,0.00
2014-3-8,44,33,25,34,28,20,89,81,65,29.98,29.79,14,6,16,0.00
2014-3-9,40,31,18,25,19,14,84,63,43,30.13,29.80,16,2,18,0.03
2014-3-10,56,45,36,37,31,24,70,58,46,29.80,29.49,19,3,20,0.00
2014-3-11,66,52,39,43,37,33,81,59,39,29.55,29.45,14,2,14,0.00
2014-3-12,44,31,12,37,26,3,92,79,64,29.77,29.07,38,10,44,0.25
2014-3-13,12,12,11,5,4,2,75,70,67,29.79,29.76,21,11,23,0.00
2014-3-16,24,23,20,8,6,4,58,49,44,30.14,30.01,16,6,20,0.00
2014-3-17,39,22,14,20,9,6,70,58,42,30.00,29.77,14,5,18,0.00
2014-3-18,54,41,26,33,27,18,76,57,42,29.92,29.81,18,5,18,0.00
2014-3-19,48,44,37,45,38,28,91,79,61,29.82,29.59,23,8,23,0.42
2014-3-20,40,36,33,35,28,23,88,71,55,29.92,29.73,20,3,20,0.03
2014-3-21,48,34,24,36,28,20,90,78,60,30.02,29.77,11,2,11,0.08
2014-3-22,49,41,36,38,30,25,75,65,42,30.02,29.56,16,7,22,0.00
2014-3-23,36,26,18,26,14,6,73,59,42,30.24,30.02,14,8,24,0.00
2014-3-24,32,19,11,12,9,6,82,67,35,30.25,30.02,12,2,16,0.00
2014-3-25,38,28,18,23,13,2,87,58,26,30.00,29.78,18,4,24,0.00
2014-3-26,27,21,14,16,9,3,83,61,43,30.25,29.97,16,5,16,0.00
2014-3-27,53,36,20,30,14,9,65,42,26,30.21,29.70,18,7,18,0.01
2014-3-28,59,50,40,47,36,21,76,61,29,30.02,29.61,24,8,25,0.01
2014-3-29,42,36,31,37,31,27,91,83,72,30.02,29.71,27,8,29,0.32
2014-3-30,42,34,29,29,23,18,93,67,39,30.05,29.80,25,10,26,0.01
2014-3-31,61,43,24,27,20,13,79,47,17,30.13,29.96,8,1,9,0.00
2014-4-1,74,57,42,38,26,15,48,32,13,29.96,29.67,24,5,29,0.00
2014-4-2,59,50,42,40,33,28,85,54,35,30.02,29.89,18,3,19,0.02
2014-4-3,50,45,40,48,37,25,93,73,48,29.99,29.65,16,3,19,0.47
2014-4-4,67,54,39,59,50,29,100,86,61,29.71,29.32,27,5,27,0.24
2014-4-5,41,36,33,30,26,23,69,65,54,30.01,29.71,22,5,22,0.00
2014-4-6,56,48,26,30,22,16,88,39,23,30.11,29.86,13,2,13,0.00
2014-4-7,52,48,44,50,34,17,93,64,32,29.89,29.23,16,4,16,0.53
2014-4-8,57,49,40,51,38,24,93,70,36,29.63,29.21,20,4,23,0.10
2014-4-9,52,44,38,33,30,25,75,59,37,29.92,29.62,13,2,24,0.00
2014-4-10,70,58,40,38,32,28,63,39,24,29.92,29.64,26,8,27,0.00
2014-4-11,65,52,46,51,47,39,93,83,38,29.97,29.73,20,2,20,0.29
2014-4-12,72,45,36,48,40,32,94,85,24,30.07,29.77,11,2,16,0.01
2014-4-13,80,73,59,54,48,43,59,43,29,29.80,29.60,27,8,27,0.00
2014-4-14,72,66,53,57,52,41,92,63,37,29.60,29.47,28,9,28,0.14
2014-4-15,53,33,27,50,28,16,92,82,56,30.12,29.47,20,7,22,0.17
2014-4-16,44,33,21,23,16,12,88,54,28,30.38,30.12,15,2,15,0.02
2014-4-17,64,48,35,30,23,13,47,37,25,30.31,30.17,15,4,16,0.00
2014-4-18,66,56,42,39,32,26,62,41,28,30.18,30.07,12,3,12,0.00
2014-4-19,60,50,40,40,31,21,86,52,23,30.25,30.10,22,4,22,0.00
2014-4-20,72,56,37,31,27,21,73,38,15,30.19,29.98,14,3,14,0.00
2014-4-21,77,63,45,41,33,23,63,34,21,29.98,29.63,12,2,12,0.00
2014-4-22,67,57,44,56,45,31,93,67,41,29.72,29.50,30,7,30,0.18
2014-4-23,47,41,37,34,29,21,80,64,42,30.02,29.71,20,7,23,0.00
2014-4-24,60,45,29,26,21,15,82,43,19,30.08,29.77,13,2,13,0.00
2014-4-25,56,51,44,53,36,17,92,65,27,29.78,29.50,19,5,21,0.35
2014-4-26,65,51,40,47,39,30,92,66,39,29.91,29.68,24,6,26,0.00
2014-4-27,61,48,36,36,32,27,83,58,29,30.02,29.90,13,3,13,0.00
2014-4-28,53,49,45,49,40,31,92,72,49,29.91,29.65,21,4,21,0.58
2014-4-29,70,56,51,60,52,45,94,84,59,29.77,29.54,25,9,26,0.94
2014-4-30,57,52,49,55,50,45,94,92,78,29.82,29.61,16,3,20,0.83
2014-5-1,58,52,47,55,42,34,94,70,45,29.73,29.66,14,3,18,0.08
2014-5-2,54,50,46,41,38,34,75,64,56,29.73,29.67,12,2,13,0.00
2014-5-3,62,52,47,49,39,34,80,62,41,29.72,29.58,9,2,26,0.18
2014-5-4,62,54,45,42,37,29,74,53,31,29.94,29.69,27,3,29,0.00
2014-5-5,56,47,34,42,35,30,89,67,40,29.98,29.79,10,1,10,0.02
2014-5-6,67,55,41,39,35,29,71,49,31,29.91,29.80,15,3,15,0.00
2014-5-7,78,60,46,57,46,32,87,62,44,29.95,29.80,13,3,15,0.28
2014-5-8,82,66,55,59,53,49,82,64,41,29.91,29.81,16,1,18,0.00
2014-5-9,80,70,62,63,54,51,82,59,45,29.87,29.72,19,4,19,0.15
2014-5-10,64,62,57,60,56,52,91,82,71,29.86,29.72,6,2,10,0.00
2014-5-11,73,67,53,59,56,51,95,70,51,30.00,29.88,7,2,10,0.09
2014-5-12,75,67,62,67,62,58,92,85,71,29.97,29.88,19,3,19,0.27
2014-5-13,85,77,62,67,62,58,94,64,42,29.92,29.84,14,4,15,0.15
2014-5-14,79,66,63,63,62,60,94,89,55,29.94,29.75,13,2,13,0.79
2014-5-15,66,60,50,62,56,43,93,84,71,29.86,29.65,14,5,15,0.45
2014-5-16,57,49,42,43,38,34,84,68,47,29.89,29.82,12,3,12,0.00
2014-5-17,53,46,42,44,41,38,92,82,62,30.11,29.88,15,2,15,0.22
2014-5-18,63,48,34,47,35,28,94,65,29,30.18,30.11,10,0,14,0.01
2014-5-19,71,55,37,46,37,31,94,58,25,30.20,30.03,9,0,9,0.00
2014-5-20,73,61,48,59,49,40,85,67,39,30.08,29.81,14,2,14,0.00
2014-5-21,74,67,61,64,60,54,91,79,65,29.81,29.68,14,1,14,0.03
2014-5-22,70,64,53,64,54,45,94,72,43,29.89,29.68,18,3,19,0.01
2014-5-23,64,57,49,48,46,42,92,69,49,30.01,29.84,11,2,21,0.00
2014-5-24,73,59,44,49,45,42,94,63,34,30.06,29.98,5,2,13,0.00
2014-5-25,78,64,46,53,47,44,94,60,33,30.06,29.96,1,0,9,0.00
2014-5-26,82,68,51,59,53,49,93,63,35,29.99,29.83,3,1,11,0.00
2014-5-27,84,75,64,68,63,58,93,69,46,29.84,29.73,16,1,16,0.45
2014-5-28,80,66,64,66,63,62,95,92,60,29.88,29.75,6,0,8,0.39
2014-5-29,77,66,59,63,56,47,94,71,41,29.96,29.86,11,2,14,0.00
2014-5-30,78,64,51,58,52,45,92,67,34,30.04,29.96,11,2,13,0.00
2014-5-31,79,66,52,57,51,46,93,61,34,30.09,30.00,11,1,11,0.00
2014-6-1,82,69,52,62,56,46,85,64,47,30.06,29.92,9,1,9,0.00
2014-6-2,76,71,66,67,63,58,86,76,69,29.98,29.83,12,1,12,0.01
2014-6-3,84,74,65,69,62,49,94,70,41,29.83,29.69,12,1,19,0.67
2014-6-4,75,63,54,62,56,50,93,78,52,29.79,29.58,11,1,16,0.48
2014-6-5,68,61,52,54,48,42,94,65,40,29.83,29.61,14,3,14,0.01
2014-6-6,76,61,45,55,47,41,94,64,32,29.90,29.81,14,1,14,0.00
2014-6-7,80,64,46,54,49,43,93,62,32,29.94,29.76,11,0,11,0.00
2014-6-8,72,62,56,65,57,51,90,84,73,29.80,29.62,16,2,19,0.10
2014-6-9,74,65,57,60,56,53,89,74,53,29.82,29.75,10,2,12,0.00
2014-6-10,74,66,59,64,61,57,95,83,69,29.80,29.74,5,0,6,0.00
2014-6-11,78,69,63,67,63,60,93,82,64,29.77,29.61,12,1,13,0.07
2014-6-12,78,70,64,66,61,59,94,75,58,29.68,29.62,11,0,12,0.23
2014-6-13,64,62,61,59,59,58,92,88,84,29.67,29.65,0,0,0,0.00
2014-6-14,72,60,48,50,47,42,92,65,35,29.99,29.85,5,2,12,0.00
2014-6-15,82,74,47,54,50,45,93,46,31,30.03,29.90,7,0,8,0.00
2014-6-16,86,70,61,70,61,52,92,74,55,29.98,29.90,8,0,12,0.28
2014-6-17,85,76,66,68,66,64,95,75,52,29.94,29.77,6,2,15,0.01
2014-6-18,88,72,67,71,66,64,92,82,50,29.89,29.81,7,1,19,0.08
2014-6-19,78,71,66,68,65,60,95,83,64,29.95,29.83,11,1,11,0.32
2014-6-20,81,69,58,69,62,56,93,80,56,29.95,29.76,9,0,9,0.09
2014-6-21,73,66,61,64,62,58,94,85,71,29.80,29.72,8,1,9,0.00
2014-6-22,82,67,55,58,53,42,94,66,25,29.83,29.77,6,0,6,0.00
2014-6-23,86,70,58,70,62,54,94,77,54,29.85,29.76,10,1,13,0.18
2014-6-24,84,72,66,71,67,64,96,85,62,29.86,29.74,12,1,15,1.42
2014-6-25,78,71,65,70,66,62,96,86,61,29.82,29.71,12,1,13,0.32
2014-6-26,81,70,61,64,62,59,95,77,50,29.91,29.82,11,1,11,0.01
2014-6-27,85,72,59,66,61,57,95,72,40,29.97,29.90,6,0,7,0.00
2014-6-28,88,75,62,70,64,60,94,72,45,30.02,29.95,7,0,8,0.00
2014-6-29,74,72,70,69,68,68,91,89,84,29.97,29.96,0,0,5,0.00
2014-6-30,82,75,68,70,69,66,95,83,66,29.88,29.71,3,1,8,0.00
2014-7-1,87,79,71,73,70,66,90,76,53,29.72,29.59,4,1,14,0.00
2014-7-2,83,75,67,72,65,61,93,72,48,29.80,29.63,7,1,13,0.61
2014-7-3,75,68,64,66,63,55,95,85,52,29.87,29.76,12,1,12,0.24
2014-7-4,71,63,54,56,50,44,95,68,39,30.15,29.97,6,2,15,0.00
2014-7-5,77,63,48,58,50,45,95,67,37,30.17,30.02,1,0,8,0.00
2014-7-6,74,65,54,62,58,52,94,77,62,30.00,29.76,2,0,10,0.00
2014-7-7,78,71,67,70,65,59,91,80,69,29.75,29.62,4,1,18,0.16
2014-7-8,80,72,66,69,66,62,95,81,57,29.68,29.49,7,2,21,0.08
2014-7-9,80,71,63,62,60,54,91,70,42,29.85,29.66,3,1,12,0.00
2014-7-10,79,69,58,62,58,56,95,72,48,29.99,29.86,4,1,11,0.01
2014-7-11,83,71,59,64,59,55,89,68,42,30.07,29.99,1,0,8,0.00
2014-7-12,83,73,61,66,62,59,93,71,51,30.04,29.88,2,0,9,0.00
2014-7-13,83,75,69,75,68,62,92,79,67,29.86,29.70,3,1,16,0.86
2014-7-14,80,72,69,72,68,66,94,87,68,29.76,29.64,1,0,7,0.31
2014-7-15,76,70,59,68,56,49,92,63,44,29.73,29.59,12,2,14,1.18
2014-7-16,70,62,51,55,51,49,93,70,50,29.85,29.72,12,1,12,0.00
2014-7-17,72,60,52,57,53,49,94,80,48,29.94,29.85,10,0,10,0.00
2014-7-18,75,64,51,58,53,49,93,70,46,30.08,30.00,2,1,12,0.00
2014-7-19,67,64,61,64,62,60,95,93,84,30.00,29.92,2,0,9,0.59
2014-7-20,76,71,63,66,64,62,95,80,69,29.94,29.88,6,0,6,1.18
2014-7-21,86,73,60,69,64,59,96,76,46,29.97,29.89,5,0,6,0.01
2014-7-22,83,69,63,71,65,61,95,89,65,29.96,29.92,5,0,5,0.00
2014-7-23,77,67,63,70,60,56,94,79,70,29.85,29.77,13,4,15,0.00
2014-7-24,72,64,56,57,54,50,94,71,50,29.91,29.82,14,3,14,0.00
2014-7-25,77,64,48,60,52,46,95,70,41,29.95,29.82,9,0,9,0.00
2014-7-26,82,70,62,66,63,60,93,80,54,29.83,29.65,10,1,12,0.35
2014-7-27,80,71,62,72,67,59,95,89,70,29.66,29.45,12,1,14,0.09
2014-7-28,67,62,56,61,56,50,94,81,61,29.79,29.45,21,3,21,0.04
2014-7-29,69,59,48,54,50,46,95,75,48,29.86,29.79,10,0,10,0.00
2014-7-30,66,56,53,58,52,50,91,86,73,29.86,29.82,6,0,6,0.00
2014-10-3,55,54,54,52,52,52,93,92,92,29.55,29.52,4,0,4,0.46
2014-10-4,54,45,41,52,39,30,95,81,55,29.69,29.51,14,2,16,0.06
2014-10-5,52,45,38,38,35,32,86,68,48,29.75,29.67,11,2,11,0.00
2014-10-6,53,47,44,46,40,38,86,79,69,29.71,29.62,7,2,9,0.02
2014-10-7,61,53,48,54,50,46,95,91,71,29.76,29.60,8,2,13,0.13
2014-10-8,63,53,46,50,43,35,95,72,41,29.92,29.67,18,2,19,0.01
2014-10-9,57,46,39,48,39,35,92,78,62,29.98,29.89,8,0,8,0.00
2014-10-10,58,52,41,52,44,39,96,76,57,30.00,29.92,11,1,11,0.01
2014-10-11,55,48,40,41,38,34,79,67,51,30.10,29.91,16,4,19,0.00
2014-10-12,65,49,35,53,42,31,89,76,45,30.10,29.93,12,1,14,0.00
2014-10-13,73,63,55,62,57,52,90,82,66,29.94,29.80,10,2,10,0.02
2014-10-14,77,65,58,64,57,54,92,76,47,29.80,29.50,11,4,21,0.14
2014-10-15,66,59,54,58,54,52,95,85,62,29.69,29.60,9,1,10,0.26
2014-10-16,62,54,51,54,52,50,96,91,69,29.63,29.57,10,0,13,0.04
2014-10-17,53,52,52,50,50,50,92,92,91,29.62,29.60,5,1,6,0.00
2014-10-18,58,49,45,50,42,39,89,78,71,29.75,29.53,19,7,22,0.03
2014-10-19,47,43,39,41,35,32,90,74,59,30.07,29.91,10,3,13,0.01
2014-10-20,55,49,41,46,41,34,82,75,63,29.92,29.72,7,3,11,0.04
2014-10-21,50,48,45,49,46,42,95,91,80,29.94,29.70,10,4,22,0.07
2014-10-22,49,47,42,44,41,38,94,80,70,30.10,29.94,13,4,19,0.00
2014-10-23,56,45,42,44,41,39,94,87,61,30.09,29.97,8,1,16,0.00
2014-10-24,60,50,34,46,39,32,95,67,44,30.00,29.86,10,0,11,0.01
2014-10-25,68,57,43,54,46,38,82,68,60,29.86,29.65,12,3,14,0.00
2014-10-26,59,51,41,34,30,26,70,47,28,29.84,29.67,6,2,18,0.00
2014-10-27,73,63,33,57,50,29,86,64,33,29.90,29.71,12,5,15,0.00
2014-10-28,73,66,51,64,55,46,92,67,55,29.82,29.65,14,6,21,0.53
2014-10-29,50,46,46,44,42,41,87,84,81,29.85,29.81,5,0,5,0.00
2014-10-30,47,43,38,38,36,34,90,77,63,30.01,29.93,3,1,9,0.00
2014-10-31,46,43,41,40,38,36,92,83,72,29.91,29.72,5,1,9,0.08
2014-11-1,42,39,37,40,34,23,92,80,58,30.10,29.78,13,8,30,0.02
2014-11-2,43,37,30,26,24,22,80,59,46,30.26,30.11,11,6,25,0.00
2014-11-3,57,48,28,25,23,20,84,41,24,30.24,30.04,8,4,16,0.00
2014-11-4,65,55,47,51,33,22,92,45,31,30.04,29.85,20,6,21,0.05
2014-11-5,55,48,42,50,39,34,92,71,47,30.07,29.92,12,2,13,0.03
2014-11-6,48,45,43,46,42,41,94,91,83,29.92,29.58,6,1,14,0.52
2014-11-7,44,38,36,42,34,31,93,86,83,29.90,29.71,16,8,23,0.01
2014-11-13,33,30,25,24,22,19,82,73,68,30.09,30.04,4,1,13,0.00
2014-11-14,31,26,20,20,17,15,83,70,52,30.23,30.08,6,2,19,0.00
2014-11-15,36,28,20,19,16,14,84,61,42,30.32,30.15,5,1,13,0.00
2014-11-16,35,31,26,30,24,16,90,76,65,30.14,29.80,6,2,11,0.00
2014-11-17,32,28,17,31,25,10,94,87,72,29.81,29.53,4,2,16,0.17
2014-11-18,19,14,12,9,5,3,78,67,54,30.15,29.83,6,3,24,0.00
2014-11-19,31,18,10,24,10,4,80,70,55,30.15,29.77,16,8,22,0.26
2014-11-20,30,25,21,20,12,8,69,59,52,30.07,29.84,6,3,19,0.01
2014-11-21,25,19,12,16,9,5,84,65,43,30.42,30.09,3,1,14,0.01
2014-11-22,47,41,17,33,29,7,90,64,52,30.34,29.95,12,6,12,0.30
2014-11-23,61,54,42,50,41,30,91,62,49,29.96,29.28,19,6,20,0.29
2014-11-24,64,55,41,53,45,28,92,70,51,29.70,29.15,16,10,38,0.10
2014-11-25,39,36,32,28,27,25,79,68,60,30.08,29.72,6,3,16,0.00
2014-11-26,37,33,29,27,25,24,86,75,65,30.08,29.90,5,2,11,0.00
2014-11-27,33,30,28,29,25,19,89,81,62,30.13,29.90,18,3,18,0.01
2014-11-28,28,25,21,21,16,11,80,69,62,30.28,30.07,7,4,21,0.00
2014-11-29,50,38,28,37,25,18,70,60,46,30.05,29.76,11,8,18,0.00
2014-11-30,61,56,51,51,46,39,72,69,62,29.84,29.74,9,8,18,0.00
2014-12-1,61,37,31,55,29,19,91,72,62,30.43,29.86,15,7,23,0.10
2014-12-2,34,29,23,33,24,16,94,83,70,30.44,30.02,6,2,14,0.04
2014-12-3,37,34,29,34,30,24,94,84,61,30.23,29.96,4,2,19,0.03
2014-12-4,34,29,24,27,23,21,90,80,68,30.33,30.23,1,0,6,0.00
2014-12-5,40,35,30,38,31,23,94,83,71,30.26,30.03,2,1,8,0.19
2014-12-6,40,38,35,39,34,24,94,85,65,30.38,29.96,12,8,28,0.42
2014-12-7,38,33,28,24,21,17,79,63,47,30.52,30.38,7,3,21,0.00
2014-12-8,42,37,31,25,17,13,56,45,35,30.36,30.02,10,6,14,0.00
2014-12-9,41,37,35,35,32,27,90,83,60,30.02,29.94,16,7,19,0.01
2014-12-10,36,35,34,33,32,31,91,91,89,29.99,29.98,15,8,19,0.02
2014-12-11,32,28,23,23,18,11,77,67,41,30.00,29.91,6,4,21,0.00
2014-12-12,30,27,24,24,22,20,89,81,76,30.14,29.99,5,1,12,0.00
2014-12-13,28,28,26,26,25,23,90,90,89,30.13,30.10,7,1,11,0.00
2014-12-28,46,38,33,44,34,28,94,85,75,30.06,29.82,8,2,25,0.33
2014-12-29,33,28,23,28,21,14,90,75,61,30.25,30.07,7,3,14,0.00
2014-12-30,28,23,18,18,14,8,87,69,55,30.41,30.26,7,3,16,0.00
2014-12-31,24,20,13,10,5,0,69,53,35,30.39,30.13,6,3,18,0.00
2015-1-1,34,25,18,17,10,4,59,52,45,30.11,29.89,8,4,24,0.00
2015-1-2,36,30,25,20,18,17,73,62,51,30.28,30.04,3,1,9,0.00